Regional Weather Roundup
Issued by NWS

Home | Current Version | Previous Version | Text Only | Print | Product List | Glossary Off
Versions: 1 2 3 4 5 6 7 8 9 10 11 12 13 14 15 16 17 18 19 20 21 22 23 24 25 26 27 28 29 30 31 32 33 34 35 36 37 38 39 40 41 42 43 44 45 46 47 48 49 50

000
ASUS44 KMEG 171700
RWRTN
TENNESSEE HOURLY STATE WEATHER ROUNDUP
NATIONAL WEATHER SERVICE MEMPHIS TN
1200 PM CDT THU APR 17 2014

TNZ002-004-019-021-049-052-054-088>092-171800-
WEST TENNESSEE

CITY           SKY/WX    TMP DP  RH WIND       PRES   REMARKS
MEMPHIS INTL   PTSUNNY   66  42  41 S9        30.28F
NWS MEMPHIS      N/A     65 N/A N/A MISG        N/A
JACKSON        SUNNY     63  38  39 SE8       30.31F
DYERSBURG      SUNNY     64  41  42 S8        30.31F
UNION CITY     SUNNY     61  43  51 SW9       30.30F
LEXINGTON      SUNNY     63  37  39 SW6       30.33S
$$

TNZ008-025-027-028-033-062-065-066-171800-
NORTH MIDDLE TENNESSEE

CITY           SKY/WX    TMP DP  RH WIND       PRES   REMARKS
NASHVILLE      MOSUNNY   62  32  32 S8        30.37F
CLARKSVILLE    SUNNY     62  36  37 MISG      30.34F
COOKEVILLE     SUNNY     61  32  33 S3        30.38F
CROSSVILLE     SUNNY     56  21  25 S13       30.39F
$$

TNZ061-075-076-078-094-096-097-171800-
SOUTH MIDDLE TENNESSEE

CITY           SKY/WX    TMP DP  RH WIND       PRES   REMARKS
TULLAHOMA      SUNNY     59  28  31 SE8       30.38F
WINCHESTER     SUNNY     61  36  39 S10       30.37F
MCMINNVILLE    SUNNY     63  30  29 SW7       30.37F
COLUMBIA       SUNNY     63  43  48 S8        30.34F
$$

TNZ017-018-042-046-047-171800-
NORTHEAST TENNESSEE

CITY           SKY/WX    TMP DP  RH WIND       PRES   REMARKS
TRI CITIES     MOSUNNY   59  21  23 SE6       30.41F
ELIZABETHTON   SUNNY     57  27  30 CALM      30.40F
$$

TNZ012-013-036-069-073-074-171800-
CENTRAL EAST TENNESSEE

CITY           SKY/WX    TMP DP  RH WIND       PRES   REMARKS
KNOXVILLE      MOSUNNY   58  32  37 CALM      30.41F
OAK RIDGE      SUNNY     60  30  32 W6        30.42F
$$

TNZ083-085-099-171800-
SOUTHEAST TENNESSEE

CITY           SKY/WX    TMP DP  RH WIND       PRES   REMARKS
CHATTANOOGA    MOSUNNY   61  31  32 VRB6      30.41F
$$

SKY/WX REPORTED AS FAIR MEANS FEW OR NO CLOUDS BELOW
12 THOUSAND FEET.




USA.gov is the U.S. government's official web portal to all federal, state and local government web resources and services.